Weather in Kurylivka

Ukraine / Sumi District     51°04′18″N   33°23′12″E
temp.,
°C
wind,
m/s
gust,
m/s
humid.,
%
clouds,
%
prec.,
mm/h
press.,
hPa
HPBL,
m
14 april, wed
wed1400:00+10sse4884100 0.0 1019262
03:00+8sse359082 0.0 1019113
06:00+8se3687100 0.0 1018180
09:00+10sse4782100 0.1 1018327
12:00+14sse4560100 0.1 10171370
15:00+16sse4449100 0.3 10151828
18:00+14sse2259100 0.1 101539
21:00+12se367389 0.3 1015162
15 april, thu
thu1500:00+10se2278100 0.2 101428
03:00+10ene348399 0.4 101472
06:00+9ese228682 0.1 101343
09:00+11sse347696 0.1 1013306
12:00+15s345559 0.1 10121200
15:00+15s4452100 1.2 10111518
18:00+12s5671100 0.4 1012557
21:00+10s3483100 0.6 1012279
16 april, fri
fri1600:00+9se2489100 0.3 1011366
03:00+9sse3690100 0.8 1011423
06:00+9se3691100 0.4 1011261
09:00+8se6892100 0.8 1012579
12:00+10se686994 0.1 10131111
15:00+9se5774100 0.2 10141028
18:00+7sse5884100 0.1 1015941
21:00+6sse5889100 0.3 1016772
17 april, sat
sat1700:00+6se3688100 0.0 1017659
03:00+5se4687100 0.1 1018747
06:00+4se4687100 0.0 1019718
09:00+7sse477495 0.0 1019672
12:00+6sse4579100 0.1 1021841
15:00+8se3474100 0.1 1022926
18:00+8s337497 0.0 1022695
21:00+7s2285100 0.0 102380
18 april, sun
sun1800:00+7se1186100 0.0 102417
03:00+5ese229012 0.0 102422
06:00+4e229096 0.0 102519
09:00+8e2373100 0.0 1025389
12:00+12e3459100 0.0 10251292
15:00+13ene4559100 0.1 1025607
18:00+12e3665100 0.0 1024378
21:00+10e4868100 0.0 1024186